sat.trackr.live / text

‹ back to catalog

STARLINK-36707

NORAD 67706 · 2026-025P

PAYLOAD ACTIVE UNKNOWN

§ Identity

Operator
Country
US
Launch date
2026-02-07
Launch site
AFWTR
Launch vehicle
Mass (kg)
RCS (m²)

Purposes: comms

External: N2YO · Heavens-Above · Gunter

§ Orbital elements

Epoch: 2026-05-25T01:19:49.615104Z

Period
93.91 min
Inclination
97.2842°
Eccentricity
0.0001048
Mean motion
15.33436264 rev/d
Perigee alt
464.9 km
Apogee alt
466.3 km
Semi-major
6,843.7 km
B*
8.9140e-4
RAAN
256.6376°
Arg perigee
101.5889°
Mean anomaly
258.5471°
Rev number
1,771

§ Raw data

STARLINK-367071 67706U 26025P   26145.05543536  .00028804  00000+0  89140-3 0  99962 67706  97.2842 256.6376 0001048 101.5889 258.5471 15.33436264 17715

JSON: /api/v1/satellites/67706 · /tle

For live sub-satellite position, see the globe view (requires WebGL).

§ Visibility from observer

Set your observer location to see the next 7 days of passes ≥ 10°. The values pass through the URL so the page stays shareable.

No JS? Fill the form by hand. The geolocation button needs JavaScript.